Regional Weather Roundup
Issued by NWS

Home | Current Version | Previous Version | Text Only | Print | Product List | Glossary On
Versions: 1 2 3 4 5 6 7 8 9 10 11 12 13 14 15 16 17 18 19 20 21 22 23 24 25 26 27 28 29 30 31 32 33 34 35 36 37 38 39 40 41 42 43 44 45 46 47 48 49 50
000
ASUS43 KLMK 221710
RWRKY
KENTUCKY REGIONAL WEATHER ROUNDUP
NATIONAL WEATHER SERVICE LOUISVILLE KY
1200 PM EST SUN JAN 22 2017

NOTE "FAIR" INDICATES FEW OR NO CLOUDS BELOW 12,000 FEET
WITH NO SIGNIFICANT WEATHER AND/OR OBSTRUCTIONS TO VISIBILITY.

KYZ001>023-026-027-061>063-070>075-221800-
WESTERN AND SOUTH CENTRAL KENTUCKY

CITY           SKY/WX    TMP DP  RH WIND       PRES   REMARKS
PADUCAH        PTSUNNY   60  52  74 E7        29.43F
HENDERSON      CLOUDY    55  48  76 NE6       29.46F
OWENSBORO      CLOUDY    58  51  78 E8        29.47F
HOPKINSVILLE   MOSUNNY   59  55  85 E7        29.44S
BOWLING GREEN  CLOUDY    58  52  80 E3        29.46F
GLASGOW        CLOUDY    57  51  82 E3        29.46F
$$

KYZ024-025-028>034-038-045-046-053-221800-
NORTH CENTRAL KENTUCKY

CITY           SKY/WX    TMP DP  RH WIND       PRES   REMARKS
LOUISVILLE/SDF CLOUDY    56  49  77 NW3       29.48F
LOUISVILLE/LOU PTSUNNY   59  51  75 CALM      29.48F
FORT KNOX      CLOUDY    55  51  86 NE5       29.46F
$$

KYZ035>037-039>044-047>052-055>060-089>105-221800-
NORTHEAST KENTUCKY

CITY           SKY/WX    TMP DP  RH WIND       PRES   REMARKS
LEXINGTON      CLOUDY    56  50  80 NE8       29.49F
COVINGTON      CLOUDY    56  51  84 NE10      29.52F
FRANKFORT      CLOUDY    56  49  77 NE7       29.48F
$$

KYZ054-064>069-076>088-106>120-221800-
SOUTHEAST KENTUCKY

CITY           SKY/WX    TMP DP  RH WIND       PRES   REMARKS
JACKSON        LGT RAIN  53  49  86 VRB3      29.49F
LONDON         CLOUDY    54  51  90 VRB5      29.47F
SOMERSET       RAIN      52  52 100 E5        29.48F
MIDDLESBORO    DRIZZLE   53  53 100 CALM      29.50F
MONTICELLO     CLOUDY    54  52  93 N14       29.48F
$$




USA.gov is the U.S. government's official web portal to all federal, state and local government web resources and services.